Regional Weather Roundup
Issued by NWS

Home | Current Version | Previous Version | Text Only | Print | Product List | Glossary Off
Versions: 1 2 3 4 5 6 7 8 9 10 11 12 13 14 15 16 17 18 19 20 21 22 23 24 25 26 27 28 29 30 31 32 33 34 35 36 37 38 39 40 41 42 43 44 45 46 47 48 49 50

566
ASUS44 KJAN 241203
RWRMS

MISSISSIPPI HOURLY WEATHER ROUNDUP
NATIONAL WEATHER SERVICE JACKSON MS
600 AM CST MON NOV 24 2014

NOTE: "FAIR: INDICATES FEW OR NO CLOUDS BELOW 12,000 FEET WITH NO
SIGNIFICANT WEATHER AND/OR OBSTRUCTIONS TO VISIBILITY.

MSZ001>002-007>008-010>013-018>021-025>028-034>036-241300-
NORTHWEST MISSISSIPPI

CITY           SKY/WX    TMP DP  RH WIND       PRES   REMARKS
CLARKSDALE     FAIR      50  45  81 W17G23    29.76R
CLEVELAND      FAIR      51  43  74 W14G20    29.78R
GREENWOOD      MOCLDY    55  45  68 W7        29.77R
6HR MIN TEMP:  55; 6HR MAX TEMP:  63;

GREENVILLE     CLOUDY    54  44  69 W18G25    29.78R
6HR MIN TEMP:  54; 6HR MAX TEMP:  63;

GRENADA        CLOUDY    54  46  76 W10G18    29.75R
OLIVE BRANCH   CLOUDY    52  50  93 W22G32    29.66R
OXFORD         CLOUDY    54  46  76 W17G33    29.72R
TUNICA         SUNNY     50  45  81 W14G23    29.74R
$$

MSZ003>006-009-014>017-022>024-029>033-037>039-241300-
NORTHEAST MISSISSIPPI

CITY           SKY/WX    TMP DP  RH WIND       PRES   REMARKS
COLUMBUS AFB   MOCLDY    59  58  96 SW12      29.71R
6HR MIN TEMP:  59; 6HR MAX TEMP:  61;

CORINTH        PTSUNNY   59  48  67 SW13G24   29.63R
GOLDN TRIANGLE MOCLDY    61  55  82 SW9       29.70R
STARKVILLE       N/A     59  55  88 W10G20    29.71R
TUPELO         PTCLDY    59  50  72 MISG      29.67R
6HR MIN TEMP:  58; 6HR MAX TEMP:  63;

$$

MSZ040-058-241300-
CENTRAL MISSISSIPPI

CITY           SKY/WX    TMP DP  RH WIND       PRES   REMARKS
JACKSON INTL   MOCLDY    60  55  83 NW9G21    29.78R
6HR MIN TEMP:  60; 6HR MAX TEMP:  64;

JACKSON HAWKNS PTCLDY    58  51  78 NW13G21   29.78R
6HR MIN TEMP:  58; 6HR MAX TEMP:  64;

MERIDIAN KEY   PTCLDY    61  59  93 SW8       29.75R
6HR MIN TEMP:  60; 6HR MAX TEMP:  65;

MERIDIAN NAS   CLOUDY    64  59  83 SW8       29.74R
6HR MIN TEMP:  64; 6HR MAX TEMP:  65;

RAYMOND        PTSUNNY   57  54  88 NW16      29.79R
VICKSBURG      PTCLDY    52  44  74 NW7       29.83R
6HR MIN TEMP:  52; 6HR MAX TEMP:  64;

$$

MSZ059>079-241300-
SOUTH MISSISSIPPI

CITY           SKY/WX    TMP DP  RH WIND       PRES   REMARKS
BROOKHAVEN     PTSUNNY   61  59  94 W8        29.80R
HATTIESBURG    CLOUDY    68  62  81 SW12      29.79R
6HR MIN TEMP:  66; 6HR MAX TEMP:  68;

MCCOMB         CLEAR     61  58  90 W5        29.80R
6HR MIN TEMP:  61; 6HR MAX TEMP:  65;

NATCHEZ        MOCLDY    55  46  71 NW9       29.83R
6HR MIN TEMP:  55; 6HR MAX TEMP:  64;

PINE BELT      CLEAR     64  59  82 SW5       29.79R
6HR MIN TEMP:  64; 6HR MAX TEMP:  66;

$$

MSZ080>082-241300-
COASTAL MISSISSIPPI

CITY           SKY/WX    TMP DP  RH WIND       PRES   REMARKS
BILOXI         CLOUDY    66  66 100 SW6       29.79R FOG
PASCAGOULA     CLOUDY    66  66 100 VRB5      29.79S FOG
6HR MIN TEMP:  66; 6HR MAX TEMP:  68;

GULFPORT       MOCLDY    67  66  97 W10       29.79R
6HR MIN TEMP:  65; 6HR MAX TEMP:  68;

$$



USA.gov is the U.S. government's official web portal to all federal, state and local government web resources and services.